Palma de Mallorca, Spain

5:21 PM CEST on April 30, 2017 (GMT +0200)
Palma De Mallorca

Weather History for LEPA - February, 2012

Change the Weather History Date:

Wednesday, February 22, 2012

  Actual Average Record
Temperature  
Mean Temperature 47 °F -  
Max Temperature 59 °F 61 °F 69 °F (2016)
Min Temperature 35 °F 40 °F 28 °F (2005)
Degree Days  
Heating Degree Days 18    
Moisture  
Dew Point 38 °F    
Average Humidity 72    
Maximum Humidity 100    
Minimum Humidity 21    
Precipitation  
Precipitation 0.00 in 0.05 in - ()
Sea Level Pressure  
Sea Level Pressure 30.28 in    
Wind  
Wind Speed 3 mph ()    
Max Wind Speed 14 mph    
Max Gust Speed -    
Visibility 6.8 miles    
Events Rain    
Averages and records for this station are not official NWS values.
T = Trace of Precipitation, MM = Missing Value Source: Averaged Metar Reports

Daily Weather History Graph

Daily Weather History Graph

Search for Another Location

Airport or City:

Trip Planner

Search our weather history database for the weather conditions in past years. The results will help you decide how hot, cold, wet, or windy it might be!

Date:

Astronomy

Feb. 22, 2012 Rise Set
Actual Time 7:33 AM CET 6:32 PM CET
Civil Twilight 7:05 AM CET 7:00 PM CET
Nautical Twilight 6:34 AM CET 7:31 PM CET
Astronomical Twilight 6:03 AM CET 8:02 PM CET
Moon 7:24 AM CET (2/22) 7:23 PM CET (2/22)
Length of Visible Light 11h 54m
Length of Day
10h 59m
New Moon, 0% of the Moon is Illuminated
Feb 22
New Moon
Mar 1
First Quarter
Mar 8
Full
Mar 15
Last Quarter
Mar 22
New

Hourly Weather History & Observations

Time (CET) Temp. Windchill Dew Point Humidity Pressure Visibility Wind Dir Wind Speed Gust Speed Precip Events Conditions
12:00 AM 46.4 °F - 44.6 °F 93% 30.30 in 6.2 mi Calm Calm - N/A   Scattered Clouds
12:30 AM 46.4 °F - 44.6 °F 93% 30.30 in 6.2 mi Variable 2.3 mph - N/A   Scattered Clouds
1:00 AM 48 °F - 45 °F 84% 30.31 in 12 mi NNE 5.8 mph - -   Partly Cloudy
1:00 AM 48.2 °F - 44.6 °F 87% 30.30 in 6.2 mi NNE 11.5 mph - N/A Rain Light Rain
1:30 AM 48.2 °F - 44.6 °F 87% 30.30 in 6.2 mi North 3.5 mph - N/A Rain Light Rain
2:00 AM 46.4 °F - 44.6 °F 93% 30.30 in 6.2 mi Variable 1.2 mph - N/A Rain Light Rain
2:30 AM 44.6 °F - 42.8 °F 93% 30.27 in 6.2 mi Calm Calm - N/A   Scattered Clouds
3:00 AM 44.6 °F - 42.8 °F 93% 30.27 in 6.2 mi Calm Calm - N/A   Scattered Clouds
3:30 AM 44.6 °F - 42.8 °F 93% 30.27 in 6.2 mi Calm Calm - N/A   Scattered Clouds
4:00 AM 44.6 °F - 42.8 °F 93% 30.27 in 6.2 mi Calm Calm - N/A   Partly Cloudy
4:30 AM 42.8 °F - 41.0 °F 93% 30.27 in 6.2 mi Calm Calm - N/A   Partly Cloudy
5:00 AM 41.0 °F - 39.2 °F 93% 30.27 in 6.2 mi Calm Calm - N/A   Partly Cloudy
5:30 AM 39.2 °F - 37.4 °F 93% 30.27 in 6.2 mi Calm Calm - N/A   Partly Cloudy
6:00 AM 37.4 °F - 35.6 °F 93% 30.27 in 6.2 mi Calm Calm - N/A   Partly Cloudy
6:30 AM 37.4 °F - 37.4 °F 100% 30.27 in 6.2 mi ENE 2.3 mph - N/A   Partly Cloudy
7:00 AM 38 °F - 37 °F 96% 30.27 in 12 mi East 2.3 mph - -   Scattered Clouds
7:00 AM 37.4 °F - 35.6 °F 93% 30.27 in 6.2 mi Calm Calm - N/A   Partly Cloudy
7:30 AM 37.4 °F - 35.6 °F 93% 30.27 in 6.2 mi Calm Calm - N/A   Partly Cloudy
8:00 AM 35.6 °F - 35.6 °F 100% 30.27 in 6.2 mi Calm Calm - N/A   Partly Cloudy
8:30 AM 39.2 °F - 37.4 °F 93% 30.27 in 6.2 mi Variable 2.3 mph - N/A   Partly Cloudy
9:00 AM 42.8 °F - 41.0 °F 93% 30.27 in 6.2 mi Calm Calm - N/A   Partly Cloudy
9:30 AM 46.4 °F - 44.6 °F 93% 30.30 in 6.2 mi Calm Calm - N/A   Partly Cloudy
10:00 AM 51.8 °F - 46.4 °F 82% 30.30 in 6.2 mi Calm Calm - N/A   Partly Cloudy
10:30 AM 53.6 °F - 42.8 °F 67% 30.30 in 6.2 mi Calm Calm - N/A   Partly Cloudy
11:00 AM 57.2 °F - 41.0 °F 55% 30.30 in 6.2 mi NNE 9.2 mph - N/A   Partly Cloudy
11:30 AM 57.2 °F - 33.8 °F 41% 30.30 in 6.2 mi North 11.5 mph - N/A   Partly Cloudy
12:00 PM 59.0 °F - 33.8 °F 39% 30.30 in 6.2 mi North 13.8 mph - N/A   Partly Cloudy
12:30 PM 59.0 °F - 30.2 °F 34% 30.27 in 6.2 mi North 10.4 mph - N/A   Partly Cloudy
1:00 PM 59 °F - 30 °F 21% 30.28 in 19 mi North 10.4 mph - -   Scattered Clouds
1:00 PM 59.0 °F - 28.4 °F 31% 30.27 in 6.2 mi NNE 9.2 mph - N/A   Partly Cloudy
1:30 PM 59.0 °F - 32.0 °F 36% 30.27 in 6.2 mi NE 12.7 mph - N/A   Partly Cloudy
2:00 PM 59.0 °F - 32.0 °F 36% 30.27 in 6.2 mi NE 13.8 mph - N/A   Partly Cloudy
2:30 PM 59.0 °F - 33.8 °F 39% 30.27 in 6.2 mi NNE 11.5 mph - N/A   Partly Cloudy
3:00 PM 59.0 °F - 35.6 °F 42% 30.27 in 6.2 mi NNE 11.5 mph - N/A   Partly Cloudy
3:30 PM 59.0 °F - 37.4 °F 45% 30.24 in 6.2 mi NE 12.7 mph - N/A   Partly Cloudy
4:00 PM 59.0 °F - 35.6 °F 42% 30.24 in 6.2 mi NE 9.2 mph - N/A   Partly Cloudy
4:30 PM 57.2 °F - 35.6 °F 44% 30.24 in 6.2 mi NNE 13.8 mph - N/A   Partly Cloudy
5:00 PM 57.2 °F - 33.8 °F 41% 30.24 in 6.2 mi NNE 11.5 mph - N/A   Partly Cloudy
5:30 PM 57.2 °F - 37.4 °F 48% 30.24 in 6.2 mi NNE 10.4 mph - N/A   Partly Cloudy
6:00 PM 55.4 °F - 39.2 °F 54% 30.27 in 6.2 mi NNE 9.2 mph - N/A   Partly Cloudy
6:30 PM 51.8 °F - 39.2 °F 62% 30.27 in 6.2 mi Variable 1.2 mph - N/A   Partly Cloudy
7:00 PM 50 °F - 39 °F 56% 30.29 in 12 mi NE 1.2 mph - -   Scattered Clouds
7:00 PM 50.0 °F - 39.2 °F 66% 30.27 in 6.2 mi Calm Calm - N/A   Partly Cloudy
7:30 PM 50.0 °F - 37.4 °F 62% 30.30 in 6.2 mi Calm Calm - N/A   Partly Cloudy
8:00 PM 46.4 °F - 37.4 °F 71% 30.30 in 6.2 mi Calm Calm - N/A   Partly Cloudy
8:30 PM 44.6 °F - 37.4 °F 76% 30.27 in 6.2 mi Calm Calm - N/A   Partly Cloudy
9:00 PM 42.8 °F - 35.6 °F 76% 30.27 in 6.2 mi Variable 2.3 mph - N/A   Partly Cloudy
9:30 PM 41.0 °F - 35.6 °F 81% 30.30 in 6.2 mi Calm Calm - N/A   Partly Cloudy
10:00 PM 39.2 °F - 35.6 °F 87% 30.30 in 6.2 mi Calm Calm - N/A   Partly Cloudy
10:30 PM 39.2 °F - 35.6 °F 87% 30.30 in - NE 2.3 mph - N/A   Clear
11:00 PM 39.2 °F 37.0 °F 35.6 °F 87% 30.30 in - NE 3.5 mph - N/A   Clear
11:30 PM 37.4 °F - 33.8 °F 87% 30.30 in - Variable 1.2 mph - N/A   Clear